Overview Statistics Trail Chart Weather Telemetry Raw packets
 

This is the latest recevied weather packets stored in our database for station/object DL2GFH-3. If no packets are shown the sender has not sent any weather packets the latest 10 day(s).

<< 12 13 14 15 16 17 18 >>
Time Temp. Humidity Pressure Rain* Wind** Luminosity Snow
1777433527 20° C 27% 1017.1 hPa - - - -
1777432621 20.56° C 26% 1017 hPa - - - -
1777431716 21.67° C 25% 1016.8 hPa - - - -
1777430810 21.67° C 25% 1016.8 hPa - - - -
1777429905 18.33° C 29% 1016.8 hPa - - - -
1777429000 18.33° C 29% 1016.8 hPa - - - -
1777428094 18.33° C 29% 1016.7 hPa - - - -
1777427189 18.33° C 29% 1016.6 hPa - - - -
1777426283 18.89° C 29% 1016.6 hPa - - - -
1777425378 18.89° C 29% 1016.6 hPa - - - -
1777424473 18.89° C 30% 1016.6 hPa - - - -
1777423567 18.89° C 30% 1016.6 hPa - - - -
1777422662 18.89° C 30% 1016.6 hPa - - - -
1777421756 18.89° C 30% 1016.7 hPa - - - -
1777420851 18.89° C 30% 1016.7 hPa - - - -
1777419945 19.44° C 30% 1016.8 hPa - - - -
1777419040 19.44° C 30% 1016.9 hPa - - - -
1777418135 19.44° C 30% 1016.9 hPa - - - -
1777417230 19.44° C 30% 1016.9 hPa - - - -
1777416324 19.44° C 30% 1017 hPa - - - -
1777415418 19.44° C 30% 1017 hPa - - - -
1777414513 19.44° C 30% 1017.1 hPa - - - -
1777413608 20° C 30% 1017.1 hPa - - - -
1777412702 20° C 29% 1017.1 hPa - - - -
1777411797 20° C 29% 1017.1 hPa - - - -

* Rain since midnight (hover to see other rain measurements)
** Current wind speed in m/s (hover to see current wind gust speed)